Regional Weather Roundup
Issued by NWS

Home | Current Version | Previous Version | Text Only | Print | Product List | Glossary On
Versions: 1 2 3 4 5 6 7 8 9 10 11 12 13 14 15 16 17 18 19 20 21 22 23 24 25 26 27 28 29 30 31 32 33 34 35 36 37 38 39 40 41 42 43 44 45 46 47 48 49 50
733
ASUS45 KABQ 090410
RWRNM
NEW MEXICO REGIONAL WEATHER ROUNDUP
NATIONAL WEATHER SERVICE ALBUQUERQUE NM
900 PM MST MON FEB 08 2016

NOTE: "FAIR" MEANS FEW OR NO CLOUDS BELOW 12,000 FEET AGL WITH NO
       SIGNIFICANT WEATHER OR OBSTRUCTIONS TO VISION.

      THIS PRODUCT IS RELEASED AS TWO VERSIONS.  ONE VERSION NEAR
      THE TOP OF THE HOUR CONTAINING PRELIMINARY DATA FROM ALBUQUERQUE
      AND OTHER STATIONS.  A FINAL VERSION WITH ADDITIONAL DATA IS
      ISSUED ABOUT 10 MINUTES AFTER THE HOUR.

NMZ501-503-504-510>518-090500-
NORTHWEST PLATEAU/NORTHCENTRAL MOUNTAINS

CITY           SKY/WX    TMP DP  RH WIND       PRES   REMARKS
FARMINGTON     CLOUDY    32  23  69 N3        30.40R
LOS ALAMOS     CLOUDY    42  17  35 CALM      30.43R
SANTA FE       CLOUDY    31  19  61 NE8       30.39R WCI  23
TAOS           CLOUDY    30  18  59 CALM      30.43R
ANGEL FIRE     FAIR      16  11  82 CALM      30.44R

$$
NMZ402-403-502-505>509-090500-
WESTCENTRAL MOUNTAINS/SOUTHWEST MOUNTAINS

CITY           SKY/WX    TMP DP  RH WIND       PRES   REMARKS
GALLUP         PTCLDY    27  21  78 NE3       30.45R
GRANTS         CLEAR     29  17  59 NW15      30.46R WCI  18
SILVER CITY      N/A     34  18  51 NE6       30.37S WCI  29

$$
NMZ407-409-411-412-090500-
SOUTHERN DESERTS

CITY           SKY/WX    TMP DP  RH WIND       PRES   REMARKS
LORDSBURG      FAIR      41  19  42 SE8       30.32R
DEMING         CLEAR     42  16  34 N3        30.34R
LAS CRUCES     CLEAR     36  15  43 W3        30.36R
HOLLOMAN AFB   CLOUDY    45  15  30 S2        30.34R
ALAMOGORDO     CLOUDY    43  16  33 CALM      30.35R
T OR C         CLEAR     44  14  29 NW8       30.34R

$$
NMZ519>523-090500-
CENTRAL VALLEYS/CENTRAL HIGHLANDS

CITY           SKY/WX    TMP DP  RH WIND       PRES   REMARKS
ALBUQUERQUE    CLOUDY    46  22  38 N7        30.39R
DOUBLE EAGLE   CLEAR     43  21  42 NW15      30.40R
MORIARTY ARPT  FAIR      26  19  73 NE7       30.41R WCI  18
CLINES CORNERS CLOUDY    32  16  51 NE8       30.40R WCI  25
BELEN          FAIR      37  17  45 N7        30.39R WCI  31
SOCORRO        FAIR      43  15  31 N9        30.36S

$$
NMZ524>526-539-540-090500-
SOUTHCENTRAL MOUNTAINS

CITY           SKY/WX    TMP DP  RH WIND       PRES   REMARKS
RUIDOSO          N/A     37  14  38 W8        30.40R WCI  31

$$
NMZ527>531-090500-
NORTHEAST HIGHLANDS/NORTHEAST PLAINS

CITY           SKY/WX    TMP DP  RH WIND       PRES   REMARKS
LAS VEGAS      CLOUDY    28  17  63 SW3       30.42R
RATON          CLOUDY    31  18  58 W7        30.39R WCI  24
CLAYTON        CLOUDY    36  20  52 NW9       30.38R WCI  29

$$
NMZ532>537-090500-
EASTCENTRAL PLAINS

CITY           SKY/WX    TMP DP  RH WIND       PRES   REMARKS
TUCUMCARI      CLEAR     32  15  49 MISG      30.39R
CANNON AFB     CLOUDY    35  15  43 N6        30.38F WCI  30
CLOVIS AIRPORT CLOUDY    30  14  51 NW5       30.40F WCI  25

$$
NMZ028-029-538-090500-
SOUTHEAST PLAINS

CITY           SKY/WX    TMP DP  RH WIND       PRES   REMARKS
ROSWELL        CLOUDY    36  14  40 CALM      30.40R
ARTESIA        CLOUDY    37  14  38 CALM      30.41R
CARLSBAD       CLOUDY    36  14  40 S6        30.39R WCI  31
HOBBS          CLOUDY    32  14  47 CALM      30.42R


$$




USA.gov is the U.S. government's official web portal to all federal, state and local government web resources and services.